Retour au catalogue

CZ-4 DEB

ActifSSO
NORAD 20883·DEBRIS·🇨🇳 China

Lancé Sep 3, 1990 depuis Taiyuan Satellite Launch Center

Loading…

Prochains Passages (prochaines 24 heures)

TLE

FraisSource: Space-Track

Époque: Sep 14, 2026, 11:23 UTC

1 20883U 90081AT  26257.47487839  .00001413  00000-0  47377-3 0  9991
2 20883  98.5961 257.2053 0012703  99.7557  61.4377 14.38795428863174

Suivez CZ-4 DEB en temps réel avec AllMySat

Download on the App Store